Location: Silverdale
(47.6506°N, 122.6941°W)
Time: 04:37:34
(UTC+00:00)

Courier 1B Rocket - Pass Details

Date: 05 October 2022
Orbit: 920 x 1202 km, 28.3° (Epoch: 28 November)

Event Time Altitude Azimuth Distance (km) Brightness Sun altitude
Rises 03:15:05 0° 225° (SW) 3,763 8.6 -16.2°
Reaches altitude 10° 03:19:43 10° 197° (SSW) 2,743 7.4 -16.9°
Maximum altitude 03:22:13 12° 175° (S) 2,542 7.0 -17.3°
Enters shadow 03:24:22 11° 155° (SSE) 2,645 6.9 -17.7°
